Kalispell, MT

11:30 AM MDT on September 19, 2017 (GMT -0600)
Glacier Park International

Weather History for KGPI - October, 2012

Change the Weather History Date:

Monday, October 22, 2012

  Actual Average Record
Temperature  
Mean Temperature 32 °F 40 °F  
Max Temperature 42 °F 52 °F 70 °F (2003)
Min Temperature 21 °F 28 °F 12 °F (1981)
Degree Days  
Heating Degree Days 33 25  
Month to date heating degree days 463 468  
Since 1 July heating degree days 849 968  
Cooling Degree Days 0 0  
Month to date cooling degree days 0 0  
Year to date cooling degree days 192 147  
Moisture  
Dew Point 28 °F    
Average Humidity 75    
Maximum Humidity 100    
Minimum Humidity 49    
Precipitation  
Precipitation 0.12 in 0.04 in 0.64 in (1933)
Month to date precipitation 1.29 0.66  
Year to date precipitation 16.24 13.65  
Snow  
Snow T in - - ()
Month to date snowfall T  
Year to date snowfall 25.1  
Since 1 July snowfall T  
Snow Depth T in    
Sea Level Pressure  
Sea Level Pressure 29.74 in    
Wind  
Wind Speed 12 mph (North)    
Max Wind Speed 24 mph    
Max Gust Speed 31 mph    
Visibility 6 miles    
Events Snow    
T = Trace of Precipitation, MM = Missing Value Source: NWS Daily Summary

Daily Weather History Graph

Daily Weather History Graph

Search for Another Location

Airport or City:

Trip Planner

Search our weather history database for the weather conditions in past years. The results will help you decide how hot, cold, wet, or windy it might be!

Date:

Astronomy

Oct. 22, 2012 Rise Set
Actual Time 8:08 AM MDT 6:33 PM MDT
Civil Twilight 7:36 AM MDT 7:05 PM MDT
Nautical Twilight 6:59 AM MDT 7:42 PM MDT
Astronomical Twilight 6:23 AM MDT 8:18 PM MDT
Moon 3:13 PM MDT (10/22) 12:27 AM MDT (10/22)
Length of Visible Light 11h 29m
Length of Day
10h 25m
First Quarter, 57% of the Moon is Illuminated
Oct 22
First Quarter
Oct 29
Full
Nov 6
Last Quarter
Nov 13
New
Nov 20
First Quarter

Hourly Weather History & Observations

Time (MDT) Temp. Windchill Dew Point Humidity Pressure Visibility Wind Dir Wind Speed Gust Speed Precip Events Conditions
12:55 AM 26.1 °F 20.5 °F 25.0 °F 96% 29.94 in 10.0 mi WNW 4.6 mph - N/A   Clear
1:55 AM 25.0 °F 19.3 °F 24.1 °F 96% 29.94 in 10.0 mi WNW 4.6 mph - N/A   Clear
2:55 AM 24.1 °F 19.7 °F 24.1 °F 100% 29.92 in 10.0 mi North 3.5 mph - N/A   Clear
3:55 AM 25.0 °F 20.7 °F 23.0 °F 92% 29.92 in 10.0 mi WNW 3.5 mph - N/A   Clear
4:55 AM 23.0 °F - 21.0 °F 92% 29.93 in 10.0 mi Calm Calm - N/A   Clear
5:55 AM 24.1 °F 16.0 °F 23.0 °F 96% 29.92 in 10.0 mi NNW 6.9 mph - N/A   Clear
6:55 AM 23.0 °F 17.0 °F 21.9 °F 96% 29.92 in 10.0 mi West 4.6 mph - N/A   Clear
7:55 AM 26.1 °F 20.5 °F 24.1 °F 92% 29.91 in 10.0 mi NW 4.6 mph - N/A   Clear
8:23 AM 24.8 °F - 24.8 °F 100% 29.81 in 1.0 mi Calm Calm - N/A   Clear
8:30 AM 24.8 °F - 24.8 °F 100% 29.81 in 4.0 mi Calm Calm - N/A   Clear
8:46 AM 26.6 °F 20.0 °F 26.6 °F 100% 29.80 in 6.0 mi Variable 5.8 mph - N/A   Scattered Clouds
8:55 AM 27.0 °F 21.6 °F 27.0 °F 100% 29.88 in 6.0 mi North 4.6 mph - N/A   Scattered Clouds
9:55 AM 32.0 °F 23.6 °F 28.0 °F 85% 29.86 in 10.0 mi North 10.4 mph - N/A   Clear
10:55 AM 34.0 °F 24.2 °F 28.0 °F 79% 29.86 in 10.0 mi NNE 15.0 mph 20.7 mph N/A   Clear
11:55 AM 37.0 °F 30.4 °F 28.9 °F 73% 29.82 in 10.0 mi North 9.2 mph - N/A   Clear
12:55 PM 39.0 °F 29.9 °F 28.0 °F 65% 29.74 in 10.0 mi NNE 17.3 mph - N/A   Clear
1:55 PM 41.0 °F 32.2 °F 26.1 °F 55% 29.70 in 10.0 mi NNE 18.4 mph - N/A   Clear
2:55 PM 42.1 °F 34.2 °F 25.0 °F 51% 29.69 in 10.0 mi NNE 16.1 mph 23.0 mph N/A   Overcast
3:55 PM 41.0 °F 33.1 °F 24.8 °F 53% 29.62 in 10.0 mi NNE 15.0 mph 23.0 mph N/A   Overcast
4:51 PM 35.6 °F 26.2 °F 32.0 °F 87% 29.62 in 5.0 mi NNE 15.0 mph 23.0 mph 0.01 in Snow Light Snow
4:55 PM 35.1 °F 24.8 °F 32.0 °F 89% 29.70 in 5.0 mi NNE 17.3 mph - 0.01 in Snow Light Snow
5:55 PM 35.1 °F 26.4 °F 32.0 °F 89% 29.69 in 10.0 mi North 12.7 mph - 0.01 in   Overcast
6:02 PM 35.6 °F 25.9 °F 32.0 °F 87% 29.62 in 10.0 mi NNE 16.1 mph - 0.00 in   Overcast
6:10 PM 33.8 °F 23.2 °F 32.0 °F 93% 29.61 in 9.0 mi NNE 17.3 mph - 0.00 in   Overcast
6:22 PM 33.8 °F 23.2 °F 30.2 °F 87% 29.62 in 1.8 mi NNE 17.3 mph - 0.00 in Snow Light Snow
6:39 PM 33.8 °F 24.8 °F 30.2 °F 87% 29.62 in 2.0 mi NNE 12.7 mph - 0.00 in Snow Light Snow
6:55 PM 33.1 °F 23.0 °F 30.9 °F 92% 29.72 in 1.5 mi NNE 15.0 mph - 0.01 in Snow Light Snow
7:03 PM 33.8 °F 23.2 °F 30.2 °F 87% 29.64 in 1.2 mi NNE 17.3 mph - 0.01 in Snow Light Snow
7:19 PM 33.8 °F 23.5 °F 30.2 °F 87% 29.63 in 1.2 mi NNE 16.1 mph - 0.01 in Snow Light Snow
7:36 PM 32.0 °F 20.8 °F 30.2 °F 93% 29.64 in 1.5 mi NNE 17.3 mph 24.2 mph 0.02 in Snow Light Snow
7:47 PM 32.0 °F 21.2 °F 30.2 °F 93% 29.64 in 1.0 mi NNE 16.1 mph - 0.03 in Snow Light Snow
7:55 PM 32.0 °F 20.8 °F 30.0 °F 92% 29.72 in 1.5 mi NNE 17.3 mph 23.0 mph 0.04 in Snow Light Snow
8:07 PM 32.0 °F 21.6 °F 30.2 °F 93% 29.64 in 2.0 mi NNE 15.0 mph 25.3 mph N/A Snow Light Snow
8:19 PM 32.0 °F 20.8 °F 30.2 °F 93% 29.64 in 6.0 mi NNE 17.3 mph 26.5 mph 0.00 in Snow Light Snow
8:55 PM 32.0 °F 20.5 °F 28.9 °F 88% 29.72 in 5.0 mi NNE 18.4 mph 25.3 mph 0.00 in Snow Light Snow
9:55 PM 30.9 °F 19.4 °F 28.9 °F 92% 29.71 in 4.0 mi NNE 17.3 mph 26.5 mph 0.00 in Snow Light Snow
10:05 PM 30.2 °F - 28.4 °F 93% 29.64 in 5.0 mi North - - 0.00 in Snow Light Snow
10:55 PM 30.9 °F 20.2 °F 28.0 °F 89% 29.71 in 3.0 mi NNE 15.0 mph 25.3 mph 0.00 in Snow Light Snow
11:00 PM 30.2 °F 16.8 °F 28.4 °F 93% 29.65 in 1.8 mi NNE 23.0 mph 27.6 mph 0.00 in Snow Light Snow
11:12 PM 30.2 °F 17.8 °F 28.4 °F 93% 29.65 in 1.2 mi NNE 19.6 mph 26.5 mph 0.01 in Snow Light Snow
11:21 PM 30.2 °F 19.3 °F 28.4 °F 93% 29.65 in 1.2 mi NNE 15.0 mph 24.2 mph 0.01 in Snow Light Snow
11:28 PM 30.2 °F 18.9 °F 28.4 °F 93% 29.65 in 1.8 mi NNE 16.1 mph 23.0 mph 0.01 in Snow Light Snow
11:36 PM 30.2 °F 18.5 °F 28.4 °F 93% 29.65 in 2.0 mi North 17.3 mph - 0.01 in Snow Light Snow
11:46 PM 30.2 °F 19.3 °F 28.4 °F 93% 29.65 in 4.0 mi North 15.0 mph 24.2 mph 0.01 in Snow Light Snow
11:55 PM 30.9 °F 21.7 °F 28.0 °F 89% 29.72 in 7.0 mi North 11.5 mph 20.7 mph 0.01 in Snow Light Snow